Regional Weather Roundup
Issued by NWS

Home | Current Version | Previous Version | Text Only | Print | Product List | Glossary Off
Versions: 1 2 3 4 5 6 7 8 9 10 11 12 13 14 15 16 17 18 19 20 21 22 23 24 25 26 27 28 29 30 31 32 33 34 35 36 37 38 39 40 41 42 43 44 45 46 47 48 49 50

000
ASUS45 KPSR 300000
RWRAZ

ARIZONA REGIONAL HOURLY WEATHER ROUNDUP
NATIONAL WEATHER SERVICE PHOENIX AZ
500 PM MST SUN MAR 29 2015

NOTE: FAIR INDICATES FEW OR NO CLOUDS BELOW 12,000 FEET WITH NO
SIGNIFICANT WEATHER AND/OR OBSTRUCTIONS TO VISIBILITY.

AZZ001>003-036-300100-
NORTHWEST ARIZONA

CITY           SKY/WX    TMP DP  RH WIND       PRES   REMARKS
KINGMAN        MOSUNNY   82  21  10 SW13      30.07S
6HR MIN TEMP:  80; 6HR MAX TEMP:  84;

$$

AZZ004>008-015-016-018-300100-
NORTH CENTRAL ARIZONA

CITY           SKY/WX    TMP DP  RH WIND       PRES   REMARKS
GRAND CANYON   PTSUNNY   69  20  15 N8        30.23S
6HR MIN TEMP:  67; 6HR MAX TEMP:  73; 6HR PCP: TRACE;

WILLIAMS       MOSUNNY   68   9  10 SW13G21   30.30S
PRESCOTT       SUNNY     75  16  10 W9        30.16S
6HR MIN TEMP:  72; 6HR MAX TEMP:  78;

FLAGSTAFF      NOT AVBL
PAYSON         SUNNY     75  18  11 SW8       30.18F
PAGE           SUNNY     79  19  10 NE7       30.08F
6HR MIN TEMP:  71; 6HR MAX TEMP:  81;

$$

AZZ009>014-017-300100-
NORTHEAST ARIZONA

CITY           SKY/WX    TMP DP  RH WIND       PRES   REMARKS
WINSLOW        NOT AVBL
SAINT JOHNS    SUNNY     75   7   7 SW12      30.15S
6HR MIN TEMP:  70; 6HR MAX TEMP:  78;

WINDOW ROCK    LGT RAIN  67  17  14 VRB7G20   30.21S
6HR MIN TEMP:  67; 6HR MAX TEMP:  76; 6HR PCP: TRACE;

$$

AZZ023-300100-
GREATER PHOENIX AREA

CITY           SKY/WX    TMP DP  RH WIND       PRES   REMARKS
PHOENIX        PTSUNNY   95  15   5 CALM      29.91F
6HR MIN TEMP:  84; 6HR MAX TEMP:  97;

GLENDALE       MOSUNNY   93  12   5 VRB3      29.93F
LUKE AFB       SUNNY     93  19   7 CALM      29.91F
DEER VALLEY    SUNNY     90  14   6 SW6       29.94F
6HR MIN TEMP:  82; 6HR MAX TEMP:  92;

SCOTTSDALE     SUNNY     91  10   5 CALM      29.96F
6HR MIN TEMP:  83; 6HR MAX TEMP:  93;

MESA-FALCON    MOSUNNY   93   7   4 SW7         N/A
MESA-GATEWAY   MOSUNNY   91  16   6 SW7       29.96F
CHANDLER       PTSUNNY   93  14   5 W8        29.93F
$$

AZZ027-028-300100-
SOUTHWEST MARICOPA COUNTY AND PINAL COUNTY

CITY           SKY/WX    TMP DP  RH WIND       PRES   REMARKS
CASA GRANDE    MOSUNNY   91  28  10 W8        29.94S
6HR MIN TEMP:  82; 6HR MAX TEMP:  93;

$$

AZZ503-504-507>509-300100-
SOUTHEAST ARIZONA

CITY           SKY/WX    TMP DP  RH WIND       PRES   REMARKS
TUCSON         PTSUNNY   89  21   8 NW9       30.03S
6HR MIN TEMP:  84; 6HR MAX TEMP:  92;

RYAN FIELD       N/A     91  30  11 W16       30.02S
NOGALES        CLOUDY    82  21  10 SW9       30.10S
6HR MIN TEMP:  81; 6HR MAX TEMP:  88;

SAFFORD        PTSUNNY   87  18   8 N3        30.02S
6HR MIN TEMP:  79; 6HR MAX TEMP:  89;

$$

AZZ020-021-025-026-031-300100-
SOUTHWEST ARIZONA

CITY           SKY/WX    TMP DP  RH WIND       PRES   REMARKS
YUMA           SUNNY     97  34  11 W7        29.87F
6HR MIN TEMP:  85; 6HR MAX TEMP:  98;

$$

CAZ031-033-041-043-047-048-061-300100-
SOUTHERN CALIFORNIA

CITY           SKY/WX    TMP DP  RH WIND       PRES   REMARKS
DOWNTOWN L.A.  SUNNY     74  56  53 W6        29.96F
6HR MIN TEMP:  74; 6HR MAX TEMP:  78;

L.A. AIRPORT   MOSUNNY   65  57  75 W12       29.98F
6HR MIN TEMP:  63; 6HR MAX TEMP:  68;

SAN DIEGO      PTSUNNY   70  57  63 W9        30.00S
6HR MIN TEMP:  67; 6HR MAX TEMP:  74;

BURBANK        SUNNY     81  37  20 S12       29.96F
6HR MIN TEMP:  74; 6HR MAX TEMP:  84;

ONTARIO        MOSUNNY   84  41  21 W14       29.96S
6HR MIN TEMP:  75; 6HR MAX TEMP:  88;

RIVERSIDE      SUNNY     85  32  15 W13       29.95F
6HR MIN TEMP:  77; 6HR MAX TEMP:  88;

PALM SPRINGS   SUNNY     96  20   6 SE12      29.88F
6HR MIN TEMP:  89; 6HR MAX TEMP:  98;

EL CENTRO NAS  MOSUNNY   95  28   9 VRB5      29.85F
6HR MIN TEMP:  85; 6HR MAX TEMP:  96;

IMPERIAL       MOSUNNY   95  32  11 E7        29.85F
6HR MIN TEMP:  86; 6HR MAX TEMP:  95;

BLYTHE         PTSUNNY   94  29  10 VRB7      29.88F
6HR MIN TEMP:  84; 6HR MAX TEMP:  96;

$$

NVZ020-UTZ003-300100-
SOUTHERN NEVADA-UTAH

CITY           SKY/WX    TMP DP  RH WIND       PRES   REMARKS
LAS VEGAS      NOT AVBL
SALT LAKE CITY MOSUNNY   64  12  13 NW13      30.20S
6HR MIN TEMP:  57; 6HR MAX TEMP:  66;

$$

NMZ009-TXZ055-300100-
NEW MEXICO-WEST TEXAS

CITY           SKY/WX    TMP DP  RH WIND       PRES   REMARKS
ALBUQUERQUE    PTSUNNY   76  16  10 SE7       30.13S
6HR MIN TEMP:  69; 6HR MAX TEMP:  80;

EL PASO        CLOUDY    86   9   5 W13       30.08S
6HR MIN TEMP:  78; 6HR MAX TEMP:  88;

$$


........................KEY........................
SKY/WX - SKY CONDITION/WEATHER
TMP    - TEMPERATURE IN FAHRENHEIT
DP     - DEW POINT IN FAHRENHEIT
RH     - RELATIVE HUMIDITY IN PERCENT
WIND   - DIRECTION AND SPEED IN MILES PER HOUR (MPH)
VRB    - VARIABLE WIND DIRECTION
PRES   - MEAN SEA LEVEL PRESSURE IN INCHES OF MERCURY
         F - FALLING PRESSURE   R - RISING PRESSURE
         S - STEADY PRESSURE
VSB    - VISIBILITY IN MILES
HX     - HEAT INDEX IN FAHRENHEIT
WCI    - WIND CHILL INDEX IN FAHRENHEIT
TC     - TEMPERATURE IN CELSIUS WHICH IS ALSO KNOWN AS
         TEMPERATURE IN CENTIGRADE
AFB    - AIR FORCE BASE
         LUKE AFB IS LUKE AIR FORCE BASE
         DAVIS-MONTHAN IS DAVIS-MONTHAN AIR FORCE BASE
NAS    - NAVAL AIR STATION
         EL CENTRO NAS IS EL CENTRO NAVAL AIR STATION
N/A    - NOT AVAILABLE



USA.gov is the U.S. government's official web portal to all federal, state and local government web resources and services.